Regional Weather Roundup
Issued by NWS Kansas City/Pleasant Hill, MO

Home | Current Version | Previous Version | Text Only | Print | Product List | Glossary On
Versions: 1 2 3 4 5 6 7 8 9 10 11 12 13 14 15 16 17 18 19 20 21 22 23 24 25 26 27 28 29 30 31 32 33 34 35 36 37 38 39 40 41 42 43 44 45 46 47 48 49 50
000
ASUS43 KEAX 240311
RWREAX

WEATHER ROUNDUP FOR EASTERN KANSAS AND NORTHWEST MISSOURI
NATIONAL WEATHER SERVICE KANSAS CITY/PLEASANT HILL MO
1000 PM CDT WED APR 23 2014

KSZ040-057-103>105-MOZ028-029-037-043-240400-
...KANSAS CITY METROPOLITAN AREA...

CITY           SKY/WX    TMP DP  RH WIND       PRES   REMARKS
K.C. INTL      PTCLDY    69  41  36 SE20      29.70R
K.C. DOWNTOWN  PTCLDY    73  40  30 SE14G24   29.70R
LEES SUMMIT    MOCLDY    69  40  34 SE15G25   29.70F
OLATHE - IXD   MOCLDY    70  42  36 SE16G28   29.71R
OLATHE - OJC   MOCLDY    69  41  36 S20G35    29.69R
LAWRENCE       PTCLDY    71  47  42 SE16      29.68R

$$

MOZ001>008-011>017-020>025-030>033-038>040-044>046-053-054-240400-
...NORTHERN AND CENTRAL MISSOURI...

CITY           SKY/WX    TMP DP  RH WIND       PRES   REMARKS
ST. JOSEPH     PTCLDY    65  40  39 SE13      29.69R
MOSBY            N/A     64  37  36 SE9G17    29.72R
WARRENSBURG    CLEAR    N/A N/A N/A SE13G20   29.75S
WHITEMAN AFB   CLEAR     62  34  35 SE15G21   29.76F
CLINTON        CLEAR     70  41  35 SE16      29.78S
SEDALIA        CLEAR     61  40  45 SE16      29.80F
WARSAW         NOT AVBL
MARSHALL         N/A     63  43  48 SE17G25   29.79S
CHILLICOTHE      N/A     58  40  51 SE10      29.78S
MOBERLY        CLEAR     57  36  44 SE17G24   29.84F
KIRKSVILLE     CLEAR     54  35  48 SE15      29.84F

$$

MOZ041-047>049-056>058-063>065-088>090-097-240400-
...EASTERN AND SOUTHERN MISSOURI...

CITY           SKY/WX    TMP DP  RH WIND       PRES   REMARKS
ST. LOUIS INTL PTCLDY    59  34  39 SE13      29.96F
SPIRIT OF STL  PTCLDY    59  34  39 SE9       29.95R
COLUMBIA       CLEAR     58  38  47 SE15G25   29.85F
JEFFERSON CITY CLEAR     61  38  42 E14       29.86F
MEXICO         PTCLDY    54  37  54 SE14G22   29.87F
HANNIBAL       MOCLDY    57  28  33 SE14G20   29.89F
ROLLA          CLEAR     62  34  35 SE14      29.87F
LEBANON        CLEAR     64  36  34 SE13G18   29.87S
OSAGE BEACH    CLEAR     66  36  32 SE9       29.86F
SPRINGFIELD    CLEAR     67  41  38 SE16      29.83R
BRANSON        PTCLDY    64  43  45 SE12      29.89R
NEVADA         CLOUDY    68  43  40 SE16      29.77R
JOPLIN         MOCLDY    71  45  39 SE10      29.79R
WEST PLAINS    PTCLDY    62  36  37 SE10      29.94R
MALDEN         CLEAR     61  41  48 E6        29.97S

$$

IAZ060-094-KSZ022-034>040-054-083-096-NEZ052-066-093-240400-
...KANSAS...SOUTHEAST NEBRASKA AND IOWA...

CITY           SKY/WX    TMP DP  RH WIND       PRES   REMARKS
TOPEKA         MOCLDY    76  46  34 SE14      29.65R
MANHATTAN      CLOUDY    75  53  46 S26G35    29.59R
EMPORIA        CLOUDY    73  51  46 S25G38    29.64R
CHANUTE        CLOUDY    73  52  47 S21G28    29.72R
WICHITA        CLOUDY    77  52  41 S33G46    29.59S
OMAHA          CLOUDY    55  43  63 E9        29.66F
LINCOLN        CLOUDY    56  49  77 N10       29.61R
FALLS CITY     CLOUDY    67  44  43 SE15G24   29.64R
LAMONI         MOCLDY    56  38  50 SE13G22   29.75S
DES MOINES     CLOUDY    52  38  58 E14       29.79R

$$




USA.gov is the U.S. government's official web portal to all federal, state and local government web resources and services.